NM5I Weather Reports


Display with metric or nautical units.
time (UTC)temp
F
wind
direction
speed
MPH
gust
MPH
rain 1hr
in
rain 24hr
in
rain mn
in
humidity
%
barometer
mb
20260505003207 78 202 6.0 10.0 0.00 0.00 0.00 59 1007.3
20260505002137 78 175 3.0 7.0 0.00 0.00 0.00 59 1007.4
20260505001206 79 186 3.0 11.0 0.00 0.00 0.00 58 1007.5
20260505000159 79 232 6.0 16.0 0.00 0.00 0.00 57 1007.6
20260504235233 80 217 5.0 16.0 0.00 0.00 0.00 57 1007.9
20260504234126 80 222 7.0 12.0 0.00 0.00 0.00 56 1007.9
20260504233200 81 180 3.0 18.0 0.00 0.00 0.00 56 1008.1
20260504232125 80 209 7.0 11.0 0.00 0.00 0.00 56 1008.0
20260504231158 81 148 5.0 11.0 0.00 0.00 0.00 55 1008.0
20260504230224 80 183 6.0 14.0 0.00 0.00 0.00 55 1008.0
20260504223148 81 121 5.0 19.0 0.00 0.00 0.00 54 1008.4
20260504222220 81 210 5.0 14.0 0.00 0.00 0.00 53 1008.4
20260504221144 82 320 6.0 13.0 0.00 0.00 0.00 52 1008.6
20260504220125 82 226 4.0 12.0 0.00 0.00 0.00 50 1008.6
20260504213258 81 257 6.0 13.0 0.00 0.00 0.00 50 1009.2
20260504212139 81 213 5.0 17.0 0.00 0.00 0.00 49 1009.5
20260504211211 81 306 2.0 14.0 0.00 0.00 0.00 49 1009.6
20260504210208 81 143 8.0 17.0 0.00 0.00 0.00 48 1009.9
20260504205243 81 285 9.0 18.0 0.00 0.00 0.00 48 1010.1
20260504204150 81 216 6.0 12.0 0.00 0.00 0.00 49 1010.3
20260504203125 81 150 6.0 12.0 0.00 0.00 0.00 50 1010.4
20260504202158 80 127 4.0 17.0 0.00 0.00 0.00 49 1010.5
20260504201144 80 169 3.0 15.0 0.00 0.00 0.00 49 1010.7
20260504200201 80 178 6.0 14.0 0.00 0.00 0.00 49 1010.8
20260504195131 80 235 3.0 17.0 0.00 0.00 0.00 49 1011.1
20260504194204 79 224 6.0 17.0 0.00 0.00 0.00 50 1011.2
20260504193212 79 193 8.0 15.0 0.00 0.00 0.00 49 1011.5
20260504192143 80 191 3.0 11.0 0.00 0.00 0.00 50 1011.6
20260504191207 79 228 6.0 12.0 0.00 0.00 0.00 51 1011.7
20260504190148 79 161 5.0 12.0 0.00 0.00 0.00 49 1012.0
20260504185214 79 40 3.0 10.0 0.00 0.00 0.00 49 1012.0
20260504184146 79 159 8.0 17.0 0.00 0.00 0.00 49 1012.0
20260504183219 79 150 7.0 11.0 0.00 0.00 0.00 51 1012.3
20260504181149 78 179 6.0 14.0 0.00 0.00 0.00 49 1012.7
20260504180135 78 254 5.0 12.0 0.00 0.00 0.00 51 1012.7
20260504175210 77 149 3.0 13.0 0.00 0.00 0.00 51 1012.8
20260504174134 77 143 7.0 13.0 0.00 0.00 0.00 50 1013.0
20260504173152 77 173 4.0 17.0 0.00 0.00 0.00 51 1013.4
20260504172221 76 177 6.0 18.0 0.00 0.00 0.00 51 1013.5
20260504171200 75 169 5.0 15.0 0.00 0.00 0.00 54 1013.5
20260504170906 75 205 10.0 16.0 0.00 0.00 0.00 53 1013.5
20260504160220 72 207 10.0 16.0 0.00 0.00 0.00 60 1014.2
20260504150141 70 159 4.0 16.0 0.00 0.00 0.00 63 1014.7
20260504141203 67 171 6.0 15.0 0.00 0.00 0.00 68 1014.7
20260504140203 66 205 7.0 14.0 0.00 0.00 0.00 69 1014.9
20260504130151 62 246 3.0 12.0 0.00 0.00 0.00 76 1014.8
20260504120129 59 182 1.0 3.0 0.00 0.00 0.00 82 1014.4